When you browse on this site, cookies collect data to enhance your experience and personalize the content and advertising you see.
Visit our Privacy Policy to learn more. By continuing to use the site, you agree to this use of cookies and data.
  • In Romania
  • List of Countries
  • For 7 days
  • Water Temperature
  • Satellite Maps
  • Weather Map
  • Weather Widgets
  • user-avatar
    Login

    Hourly Weather Coro

    Today, 13 December, Thursday

    Time Temperature Precipitation Wind Pressure Humidity
    00:00 +27°C° 0 mm 6 mps 756 mmHg 86%
    01:00 +27°C° 0 mm 6 mps 756 mmHg 86%
    02:00 +27°C° 0 mm 6 mps 756 mmHg 86%
    03:00 +27°C° 0 mm 6 mps 756 mmHg 86%
    04:00 +26°C° 0 mm 6 mps 756 mmHg 86%
    05:00 +27°C° 0 mm 6 mps 757 mmHg 85%
    06:00 +27°C° 0 mm 6 mps 757 mmHg 83%
    07:00 +27°C° 0 mm 6 mps 757 mmHg 82%
    08:00 +29°C° 0 mm 7 mps 757 mmHg 73%
    09:00 +32°C° 0 mm 7 mps 758 mmHg 65%
    10:00 +33°C° 0 mm 7 mps 758 mmHg 57%
    11:00 +34°C° 0 mm 7 mps 757 mmHg 53%
    12:00 +35°C° 0 mm 8 mps 757 mmHg 50%
    13:00 +37°C° 0 mm 8 mps 757 mmHg 46%
    14:00 +35°C° 0 mm 8 mps 756 mmHg 49%
    15:00 +34°C° 0 mm 8 mps 756 mmHg 52%
    16:00 +34°C° 0 mm 8 mps 755 mmHg 54%
    17:00 +32°C° 0 mm 8 mps 756 mmHg 60%
    18:00 +29°C° 0 mm 8 mps 756 mmHg 66%
    19:00 +27°C° 0 mm 7 mps 756 mmHg 72%
    20:00 +27°C° 0 mm 7 mps 757 mmHg 76%
    21:00 +26°C° 0 mm 7 mps 757 mmHg 80%
    22:00 +26°C° 0 mm 6 mps 757 mmHg 84%
    23:00 +26°C° 0 mm 6 mps 757 mmHg 84%

    Tomorrow, 14 December, Friday

    Time Temperature Precipitation Wind Pressure Humidity
    00:00 +26°C° 0 mm 6 mps 757 mmHg 84%
    01:00 +26°C° 0 mm 6 mps 757 mmHg 84%
    02:00 +26°C° 0 mm 6 mps 757 mmHg 85%
    03:00 +26°C° 0 mm 6 mps 757 mmHg 86%
    04:00 +24°C° 0 mm 6 mps 757 mmHg 87%
    05:00 +26°C° 0 mm 6 mps 757 mmHg 85%
    06:00 +26°C° 0 mm 6 mps 758 mmHg 82%
    07:00 +27°C° 0 mm 6 mps 758 mmHg 79%
    08:00 +28°C° 0 mm 6 mps 758 mmHg 72%
    09:00 +30°C° 0 mm 7 mps 759 mmHg 65%
    10:00 +32°C° 0 mm 7 mps 759 mmHg 57%
    11:00 +33°C° 0 mm 7 mps 758 mmHg 52%
    12:00 +35°C° 0 mm 7 mps 757 mmHg 47%
    13:00 +36°C° 0 mm 7 mps 756 mmHg 42%
    14:00 +35°C° 0 mm 7 mps 756 mmHg 45%
    15:00 +34°C° 0 mm 8 mps 756 mmHg 47%
    16:00 +34°C° 0 mm 8 mps 755 mmHg 50%
    17:00 +32°C° 0 mm 8 mps 756 mmHg 59%
    18:00 +29°C° 0 mm 7 mps 756 mmHg 68%
    19:00 +27°C° 0 mm 7 mps 757 mmHg 77%
    20:00 +27°C° 0 mm 7 mps 757 mmHg 80%
    21:00 +26°C° 0 mm 7 mps 757 mmHg 82%
    22:00 +26°C° 0 mm 7 mps 758 mmHg 85%
    23:00 +26°C° 0 mm 7 mps 758 mmHg 85%

    Day after tomorrow, 15 December, Saturday

    Time Temperature Precipitation Wind Pressure Humidity
    00:00 +26°C° 0 mm 7 mps 757 mmHg 86%
    01:00 +26°C° 0 mm 6 mps 757 mmHg 86%
    02:00 +26°C° 0 mm 6 mps 757 mmHg 87%
    03:00 +26°C° 0 mm 6 mps 757 mmHg 88%
    04:00 +24°C° 0 mm 6 mps 757 mmHg 89%
    05:00 +26°C° 0 mm 6 mps 757 mmHg 86%
    06:00 +26°C° 0 mm 6 mps 758 mmHg 84%
    07:00 +27°C° 0 mm 7 mps 758 mmHg 82%
    08:00 +29°C° 0 mm 7 mps 759 mmHg 74%
    09:00 +30°C° 0 mm 7 mps 759 mmHg 65%
    10:00 +33°C° 0 mm 7 mps 759 mmHg 57%
    11:00 +34°C° 0 mm 7 mps 758 mmHg 55%
    12:00 +34°C° 0 mm 8 mps 758 mmHg 52%
    13:00 +35°C° 0 mm 8 mps 757 mmHg 49%
    14:00 +34°C° 0 mm 8 mps 756 mmHg 51%
    15:00 +34°C° 0 mm 8 mps 756 mmHg 53%
    16:00 +33°C° 0 mm 8 mps 756 mmHg 55%
    17:00 +31°C° 0 mm 8 mps 756 mmHg 63%
    18:00 +29°C° 0 mm 8 mps 757 mmHg 70%
    19:00 +27°C° 0 mm 7 mps 757 mmHg 77%
    20:00 +27°C° 0 mm 7 mps 758 mmHg 79%
    21:00 +26°C° 0 mm 7 mps 758 mmHg 82%
    22:00 +26°C° 0 mm 7 mps 758 mmHg 84%
    23:00 +26°C° 0 mm 6 mps 758 mmHg 85%

    16 December, Sunday

    Time Temperature Precipitation Wind Pressure Humidity
    00:00 +24°C° 0 mm 6 mps 758 mmHg 87%
    01:00 +24°C° 0 mm 6 mps 758 mmHg 88%
    02:00 +24°C° 0 mm 6 mps 757 mmHg 87%
    03:00 +24°C° 0 mm 6 mps 757 mmHg 87%
    04:00 +24°C° 0 mm 6 mps 757 mmHg 86%
    05:00 +26°C° 0 mm 6 mps 758 mmHg 84%
    06:00 +26°C° 0 mm 7 mps 758 mmHg 82%
    07:00 +26°C° 0 mm 7 mps 759 mmHg 80%
    08:00 +28°C° 0 mm 7 mps 759 mmHg 70%
    09:00 +30°C° 0 mm 7 mps 759 mmHg 60%
    10:00 +33°C° 0 mm 6 mps 759 mmHg 50%
    11:00 +34°C° 0 mm 7 mps 758 mmHg 44%
    12:00 +35°C° 0 mm 7 mps 757 mmHg 38%
    13:00 +38°C° 0 mm 8 mps 756 mmHg 33%
    14:00 +37°C° 0 mm 8 mps 756 mmHg 36%
    15:00 +35°C° 0 mm 8 mps 756 mmHg 39%
    16:00 +34°C° 0 mm 8 mps 755 mmHg 42%
    17:00 +32°C° 0 mm 8 mps 756 mmHg 54%
    18:00 +29°C° 0 mm 7 mps 756 mmHg 66%
    19:00 +26°C° 0 mm 7 mps 756 mmHg 78%
    20:00 +26°C° 0 mm 7 mps 757 mmHg 81%
    21:00 +26°C° 0 mm 6 mps 757 mmHg 83%
    22:00 +26°C° 0 mm 6 mps 757 mmHg 86%
    23:00 +26°C° 0.1 mm 6 mps 757 mmHg 87%

    17 December, Monday

    Time Temperature Precipitation Wind Pressure Humidity
    00:00 +26°C° 0.1 mm 6 mps 757 mmHg 87%
    01:00 +26°C° 0.1 mm 5 mps 756 mmHg 87%
    02:00 +26°C° 0.1 mm 5 mps 756 mmHg 88%
    03:00 +25°C° 0.1 mm 5 mps 756 mmHg 89%
    04:00 +25°C° 0.1 mm 5 mps 756 mmHg 89%
    05:00 +26°C° 0 mm 5 mps 757 mmHg 88%
    06:00 +26°C° 0 mm 6 mps 757 mmHg 86%
    07:00 +26°C° 0 mm 6 mps 758 mmHg 84%
    08:00 +28°C° 0 mm 6 mps 758 mmHg 74%
    09:00 +30°C° 0 mm 6 mps 758 mmHg 63%
    10:00 +33°C° 0 mm 6 mps 758 mmHg 52%
    11:00 +34°C° 0 mm 6 mps 757 mmHg 49%
    12:00 +35°C° 0 mm 7 mps 756 mmHg 45%
    13:00 +36°C° 0 mm 7 mps 755 mmHg 41%
    14:00 +36°C° 0 mm 7 mps 755 mmHg 44%
    15:00 +35°C° 0 mm 7 mps 755 mmHg 47%
    16:00 +34°C° 0 mm 7 mps 754 mmHg 49%
    17:00 +32°C° 0 mm 7 mps 755 mmHg 59%
    18:00 +29°C° 0 mm 7 mps 755 mmHg 69%
    19:00 +27°C° 0 mm 6 mps 756 mmHg 79%
    20:00 +27°C° 0 mm 6 mps 756 mmHg 82%
    21:00 +26°C° 0 mm 6 mps 756 mmHg 85%
    22:00 +26°C° 0 mm 6 mps 757 mmHg 88%
    23:00 +26°C° 0 mm 5 mps 756 mmHg 88%

    18 December, Tuesday

    Time Temperature Precipitation Wind Pressure Humidity
    00:00 +26°C° 0 mm 5 mps 756 mmHg 88%
    01:00 +26°C° 0 mm 5 mps 756 mmHg 88%
    02:00 +26°C° 0 mm 5 mps 756 mmHg 88%
    03:00 +26°C° 0 mm 5 mps 756 mmHg 88%
    04:00 +26°C° 0 mm 5 mps 756 mmHg 88%
    05:00 +26°C° 0 mm 5 mps 756 mmHg 86%
    06:00 +26°C° 0 mm 5 mps 757 mmHg 85%
    07:00 +27°C° 0 mm 5 mps 757 mmHg 83%
    08:00 +29°C° 0 mm 5 mps 757 mmHg 73%
    09:00 +32°C° 0 mm 5 mps 757 mmHg 62%
    10:00 +34°C° 0 mm 5 mps 757 mmHg 52%
    11:00 +35°C° 0 mm 6 mps 756 mmHg 47%
    12:00 +36°C° 0 mm 6 mps 756 mmHg 42%
    13:00 +38°C° 0 mm 6 mps 755 mmHg 38%
    14:00 +36°C° 0 mm 7 mps 754 mmHg 41%
    15:00 +36°C° 0 mm 7 mps 754 mmHg 45%
    16:00 +35°C° 0 mm 8 mps 754 mmHg 49%
    17:00 +33°C° 0 mm 7 mps 754 mmHg 59%
    18:00 +30°C° 0 mm 7 mps 755 mmHg 70%
    19:00 +27°C° 0 mm 7 mps 755 mmHg 81%
    20:00 +27°C° 0 mm 7 mps 756 mmHg 82%
    21:00 +27°C° 0 mm 6 mps 756 mmHg 84%
    22:00 +27°C° 0 mm 6 mps 756 mmHg 86%
    23:00 +27°C° 0 mm 6 mps 756 mmHg 86%
    Show more